EW2493 Weather Reports


Display with metric or nautical units.
time (UTC)temp
F
wind
direction
speed
MPH
gust
MPH
rain 1hr
in
rain 24hr
in
rain mn
in
humidity
%
barometer
mb
20260504044534 56 219 6.0 13.0 0.00 0.00 0.00 53 991.5
20260504043033 56 205 5.0 15.0 0.00 0.00 0.00 53 991.8
20260504041534 57 158 6.0 14.0 0.00 0.00 0.00 51 992.0
20260504040031 58 209 6.0 17.0 0.00 0.00 0.00 49 992.3
20260504034538 59 218 5.0 15.0 0.00 0.00 0.00 48 992.4
20260504033029 59 277 5.0 12.0 0.00 0.00 0.00 46 992.7
20260504031525 60 231 4.0 14.0 0.00 0.00 0.00 45 993.1
20260504030034 60 189 5.0 12.0 0.00 0.00 0.00 45 993.3
20260504024518 60 211 3.0 10.0 0.00 0.00 0.00 45 993.4
20260504023017 61 230 5.0 10.0 0.00 0.00 0.00 44 993.6
20260504021516 60 170 4.0 9.0 0.00 0.00 0.00 44 993.7
20260504020014 61 242 5.0 10.0 0.00 0.00 0.00 43 993.9
20260504014517 62 191 5.0 9.0 0.00 0.00 0.00 40 994.2
20260504013010 64 198 4.0 9.0 0.00 0.00 0.00 38 994.4
20260504011509 67 218 3.0 7.0 0.00 0.00 0.00 36 994.7
20260504010004 68 214 4.0 8.0 0.00 0.00 0.00 33 995.1
20260504004501 69 244 3.0 10.0 0.00 0.00 0.00 31 995.4
20260504003101 70 225 3.0 9.0 0.00 0.00 0.00 30 995.8
20260504001611 71 251 2.0 12.0 0.00 0.00 0.00 28 995.9
20260504000155 72 249 5.0 12.0 0.00 0.00 0.00 27 996.2
20260503234553 72 307 8.0 16.0 0.00 0.00 0.00 26 996.6
20260503233051 72 265 7.0 19.0 0.00 0.00 0.00 25 996.8
20260503231554 73 314 7.0 14.0 0.00 0.00 0.00 23 996.9
20260503230048 73 259 8.0 18.0 0.00 0.00 0.00 23 997.0
20260503224550 72 287 11.0 19.0 0.00 0.00 0.00 23 997.3
20260503223045 73 282 10.0 18.0 0.00 0.00 0.00 21 997.5
20260503221543 72 282 7.0 23.0 0.00 0.00 0.00 25 997.6
20260503220041 73 301 9.0 20.0 0.00 0.00 0.00 22 998.0
20260503214544 72 261 6.0 21.0 0.00 0.00 0.00 23 998.2
20260503213052 72 293 11.0 17.0 0.00 0.00 0.00 25 998.7
20260503211542 72 291 10.0 18.0 0.00 0.00 0.00 25 999.0
20260503210028 71 242 12.0 21.0 0.00 0.00 0.00 27 999.2
20260503204539 71 299 9.0 19.0 0.00 0.00 0.00 25 999.6
20260503203025 71 310 13.0 20.0 0.00 0.00 0.00 25 999.9
20260503201525 70 300 10.0 18.0 0.00 0.00 0.00 28 1000.2
20260503200019 70 244 7.0 21.0 0.00 0.00 0.00 28 1000.6
20260503194522 69 308 8.0 19.0 0.00 0.00 0.00 29 1000.9
20260503193015 69 325 6.0 14.0 0.00 0.00 0.00 28 1001.3
20260503191512 68 297 10.0 16.0 0.00 0.00 0.00 30 1001.5
20260503190011 68 325 10.0 16.0 0.00 0.00 0.00 30 1001.8
20260503184508 68 295 7.0 16.0 0.00 0.00 0.00 30 1002.1
20260503183006 67 292 3.0 12.0 0.00 0.00 0.00 34 1002.4
20260503181506 67 321 5.0 17.0 0.00 0.00 0.00 33 1002.5
20260503180005 66 347 7.0 12.0 0.00 0.00 0.00 34 1002.9
20260503173131 65 348 10.0 19.0 0.00 0.00 0.00 34 1003.5
20260503171557 65 301 10.0 17.0 0.00 0.00 0.00 34 1003.7
20260503081545 44 326 3.0 7.0 0.00 0.00 0.00 77 1003.6